#timestamp,LO_Frequency,Hit,StdDev 
1587661215.7,286046998.4,N
1587661235.5,286046998.2,N
1587661255.3,286047000.4,N
1587661275.2,286046999.0,N
1587661295.0,286047001.0,N
1587661295.9,286047001.0,N
1587661315.7,286046999.7,N
1587661335.6,286046998.3,N
1587661355.4,286046996.5,N
1587661375.3,286046998.9,N
1587661395.1,286046998.6,N
1587661415.8,286047001.8,N
1587661435.7,286047000.0,N
1587661455.5,286046999.3,N
1587661475.4,286046998.4,N
1587661495.2,286046999.7,N
1587661515.0,286047000.5,N
1587661515.9,286047000.5,N
1587661535.8,286046996.9,N
1587661555.6,286046997.0,N
1587661575.5,286046997.1,N
1587661595.3,286046999.4,N
1587661615.1,286046997.4,N
1587661635.9,286046996.6,N
1587661655.7,286046999.8,N
1587661675.6,286047001.3,N
1587661695.4,286047003.7,N
1587661715.2,286047000.1,N
1587661735.1,286047000.3,N
1587661736.0,286047000.3,N
1587661755.8,286047000.7,N
1587661775.6,286046998.6,N
1587661795.5,286047002.8,N
1587661815.3,286047002.6,N
1587661835.2,286047004.2,N
1587661855.9,286047001.3,N
1587661875.7,286047001.9,N
1587661895.6,286047001.4,N
1587661915.4,286046999.8,N
1587661935.2,286047000.3,N
1587661955.1,286047001.8,N
1587661956.0,286047001.8,N
1587661975.8,286047001.7,N
1587661995.7,286047001.3,N
1587662015.5,286047001.8,N
1587662035.3,286047002.4,N
1587662055.2,286046999.9,N
1587662075.0,286046999.3,N
1587662075.9,286046999.3,N
1587662095.8,286046997.1,N
1587662115.6,286046997.1,N
1587662135.4,286046997.0,N
1587662155.3,286047000.7,N
1587662175.1,286046999.8,N
1587662195.9,286046998.2,N
1587662215.7,286047000.9,N
1587662235.5,286047001.0,N
1587662255.4,286047002.5,N
1587662275.2,286046998.1,N
1587662295.0,286047002.4,N
1587662296.0,286047002.4,N
1587662315.8,286047000.6,N
1587662335.6,286046997.0,N
1587662355.5,286046997.4,N
1587662375.3,286046996.5,N
1587662395.1,286047002.2,N
1587662415.9,286047000.2,N
1587662435.7,286047002.7,N
1587662455.6,286047000.2,N
1587662475.4,286047002.0,N
1587662495.2,286047003.6,N
1587662515.1,286047003.4,N
1587662516.0,286047003.4,N
1587662535.8,286047003.7,N
1587662555.7,286047001.0,N
1587662575.5,286046998.1,N
1587662595.3,286047000.1,N
1587662615.2,286047002.1,N
1587662635.0,286047001.6,N
1587662635.9,286047001.6,N
1587662655.8,286047004.3,N
1587662675.6,286047002.0,N
1587662695.4,286047001.7,N
1587662715.3,286047002.6,N
1587662735.1,286047002.1,N
1587662755.8,286047001.6,N
1587662775.7,286047001.3,N
1587662795.5,286047002.0,N
1587662815.4,286046999.0,N
1587662835.2,286046999.1,N
1587662855.0,286047000.9,N
1587662855.9,286047000.9,N
1587662875.8,286047002.5,N
1587662895.6,286047002.6,N
1587662915.5,286047004.4,N
1587662935.3,286047003.4,N
1587662955.1,286047003.2,N
1587662975.9,286047000.4,N
1587662995.7,286047002.0,N
1587663015.5,286047004.0,N
1587663035.4,286046999.9,N
1587663055.2,286046998.2,N
1587663075.1,286047000.5,N
1587663076.0,286047000.5,N
1587663095.8,286047001.0,N
1587663115.6,286047000.6,N
1587663135.5,286047000.7,N
1587663155.3,286047000.3,N
1587663175.2,286046998.5,N
1587663195.0,286047000.8,N
1587663195.9,286047000.8,N
1587663215.7,286046999.9,N
1587663235.6,286047002.7,N
1587663255.4,286047000.3,N
1587663275.3,286047000.6,N
1587663295.1,286046999.7,N
1587663296.0,286046999.7,N
1587663315.8,286047003.9,N
1587663335.7,286047002.3,N
1587663355.5,286047000.2,N
1587663375.4,286047001.2,N
1587663395.2,286046998.2,N
1587663415.0,286046998.6,N
1587663415.9,286046998.6,N
1587663435.8,286046998.8,N
1587663455.6,286047000.2,N
1587663475.4,286047000.2,N
1587663495.3,286047000.6,N
1587663515.1,286046998.3,N
1587663535.9,286046999.1,N
1587663555.7,286046996.9,N
1587663575.5,286046996.5,N
1587663595.4,286046996.7,N
1587663615.2,286046996.8,N
1587663635.0,286046997.3,N
1587663636.0,286046997.3,N
1587663655.8,286046996.7,N
1587663675.6,286046997.8,N
1587663695.5,286046997.6,N
1587663715.3,286046995.7,N
1587663735.1,286046996.2,N
1587663755.9,286046993.3,Y
1587663775.7,286046995.0,P
1587663795.6,286046994.9,N
1587663815.4,286046995.7,N
1587663835.2,286046997.9,N
1587663855.1,286046994.9,Y
1587663856.0,286046994.9,P
1587663875.8,286047001.0,N
1587663895.7,286046998.9,N
1587663915.5,286046996.8,N
1587663935.3,286046997.9,N
1587663955.2,286046997.6,N
1587663975.0,286046997.9,N
1587663975.9,286046997.9,N
1587663995.8,286046997.8,N
1587664015.6,286046997.5,N
1587664035.4,286046996.7,N
1587664055.3,286046999.2,N
1587664075.1,286046996.6,N
1587664095.8,286046999.2,N
1587664115.7,286046999.4,N
1587664135.5,286046999.5,N
1587664155.4,286046999.2,N
1587664175.2,286046999.6,N
1587664195.0,286046997.1,N
1587664195.9,286046997.1,N
1587664215.8,286046997.4,N
1587664235.6,286046996.7,N
1587664255.5,286046997.9,N
1587664275.3,286046997.7,N
1587664295.1,286046997.3,N
1587664315.9,286046996.7,N
1587664335.7,286046999.3,N
1587664355.6,286046998.5,N
1587664375.4,286047001.2,N
1587664395.2,286047000.0,N
1587664415.1,286047001.2,N
1587664416.0,286047001.2,N
1587664435.8,286047000.1,N
1587664455.6,286046998.6,N
1587664475.5,286047001.1,N
1587664495.3,286046999.3,N
1587664515.2,286046996.9,N
1587664535.9,286046998.4,N
1587664555.7,286047000.8,N
1587664575.6,286047001.0,N
1587664595.4,286047000.0,N
1587664615.2,286046998.9,N
1587664635.1,286046998.6,N
1587664636.0,286046998.6,N
1587664655.8,286046999.2,N
1587664675.7,286046996.6,N
1587664695.5,286046999.1,N
1587664715.3,286047000.8,N
1587664735.2,286046998.2,N
1587664755.0,286046996.5,N
1587664755.9,286046996.5,N
1587664775.8,286046999.0,N
1587664795.6,286046998.9,N
